Flag for Indonesia Weather past 2 weeks in Makassar, South Sulawesi, Indonesia

Now
88 °F

Scattered clouds.


Feels Like: 98 °F
Forecast: 79 / 85 °F
Wind: 6 mph from West

Location: Ujung Pandang / Hasanuddin

Current Time: Jan 31, 2015 at 1:43:30 PM

Latest Report: Jan 31, 2015 at 1:00 PM


Visibility: N/A

Pressure: 29.83 "Hg

Humidity: 66%

Dew point: 75 °F

Location of MakassarLocation

Historic Weather in Makassar — Graph

°F

Makassar temperature yesterday

Maximum temperature yesterday: 88 °F (at 11:00 AM)
Minimum temperature yesterday: 75 °F (at 12:00 AM)
Average temperature yesterday: 81 °F

Past Weeks' High & Low Weather Summary

 TemperatureHumidityPressure
High90 °F (Jan 21, 1:00 PM)100% (Jan 17, 12:30 AM)29.98 "Hg (Jan 17, 12:30 AM)
Low73 °F (Jan 21, 6:00 AM)52% (Jan 21, 1:30 PM)29.74 "Hg (Jan 28, 3:30 PM)
Average80 °F88%29.87 "Hg
* Reported Jan 16 12:00 Noon — Jan 31 12:00 Noon, Makassar, Weather by CustomWeather, © 2014

Note: Actual official high and low records may vary slightly from our data, if they occured in-between our weather recording intervals... More about our weather records

Advertising

Makassar weather history for previous 24 hours

 ConditionsComfort  
Time TempWeatherWind HumidityBarometerVisibility
12:00 PM
Jan 31
86 °FPassing clouds.7 mph75%29.86 "HgN/A
11:00 AM88 °FPassing clouds.5 mph66%29.89 "HgN/A
10:30 AM86 °FPassing clouds.6 mph66%29.89 "HgN/A
10:00 AM84 °FPassing clouds.5 mph74%29.89 "HgN/A
9:30 AM84 °FPassing clouds.3 mph74%29.89 "HgN/A
9:00 AM84 °FPassing clouds.3 mph74%29.89 "HgN/A
8:30 AM82 °FPassing clouds.3 mph79%29.89 "Hg6 mi
8:00 AM79 °FPassing clouds.2 mph94%29.89 "Hg6 mi
7:30 AM79 °FScattered clouds.3 mph94%29.89 "Hg6 mi
7:00 AM77 °FScattered clouds.2 mph100%29.86 "Hg6 mi
6:30 AM77 °FScattered clouds.2 mph94%29.86 "Hg5 mi
6:00 AM75 °FPassing clouds.2 mph100%29.86 "Hg4 mi
4:30 AM75 °FThunderstorms. Passing clouds.2 mph100%29.83 "Hg4 mi
4:00 AM75 °FThunderstorms. Passing clouds.3 mph100%29.83 "Hg4 mi
3:00 AM75 °FThunderstorms. Passing clouds.2 mph100%29.83 "Hg4 mi
2:30 AM75 °FThunderstorms. Passing clouds.6 mph94%29.83 "Hg4 mi
2:00 AM77 °FStrong thunderstorms. Passing clouds.9 mph89%29.86 "Hg1 mi
1:30 AM77 °FThunderstorms. Passing clouds.3 mph94%29.86 "Hg4 mi
1:00 AM77 °FThundershowers. Passing clouds.3 mph100%29.86 "Hg4 mi
12:30 AM77 °FPassing clouds.3 mph94%29.89 "Hg5 mi
12:00 AM77 °FPassing clouds.2 mph100%29.89 "Hg5 mi
11:30 PM
Jan 30
77 °FPassing clouds.2 mph100%29.89 "Hg5 mi
11:00 PM77 °FPassing clouds.3 mph100%29.89 "Hg5 mi
10:30 PM79 °FPassing clouds.2 mph94%29.89 "Hg5 mi
10:00 PM79 °FPassing clouds.3 mph94%29.89 "Hg5 mi
9:30 PM79 °FPassing clouds.2 mph94%29.89 "Hg4 mi
9:00 PM79 °FPassing clouds.3 mph94%29.89 "Hg4 mi
8:30 PM79 °FPassing clouds.3 mph100%29.89 "Hg4 mi
8:00 PM79 °FPassing clouds.5 mph100%29.86 "Hg4 mi
7:30 PM81 °FPassing clouds.3 mph94%29.86 "Hg4 mi
7:00 PM81 °FLight rain. Passing clouds.1 mph94%29.83 "Hg4 mi
6:30 PM81 °FLight rain. Passing clouds.5 mph94%29.83 "Hg4 mi
6:00 PM81 °FScattered clouds.3 mph89%29.83 "Hg6 mi
5:30 PM81 °FPartly sunny.2 mph94%29.80 "Hg5 mi
5:00 PM81 °FPartly sunny.1 mph89%29.80 "Hg4 mi
4:30 PM84 °FLight rain. Partly sunny.7 mph79%29.80 "Hg4 mi
4:00 PM86 °FScattered clouds.6 mph66%29.80 "HgN/A
3:30 PM86 °FScattered clouds.7 mph84%29.80 "HgN/A
3:00 PM88 °FScattered clouds.6 mph66%29.80 "HgN/A
2:30 PM88 °FPassing clouds.8 mph66%29.80 "HgN/A
2:00 PM86 °FPassing clouds.9 mph75%29.80 "HgN/A
1:30 PM86 °FScattered clouds.12 mph70%29.80 "HgN/A
1:00 PM88 °FScattered clouds.9 mph70%29.83 "HgN/A
Weather by CustomWeather, © 2014

See weather overviewHow to use our weather pages